Year,Month,Day,Hour,Minute,Value (Times are PST for temperature in C)
2014,06,10,00,00,10.90
2014,06,10,00,01,10.90
2014,06,10,00,02,10.90
2014,06,10,00,03,10.90
2014,06,10,00,04,10.90
2014,06,10,00,05,10.90
2014,06,10,00,06,10.90
2014,06,10,00,07,10.90
2014,06,10,00,08,10.90
2014,06,10,00,09,10.90
2014,06,10,00,10,10.90
2014,06,10,00,11,10.90
2014,06,10,00,12,10.90
2014,06,10,00,13,10.90
2014,06,10,00,14,10.90
2014,06,10,00,15,10.90
2014,06,10,00,16,10.90
2014,06,10,00,17,10.90
2014,06,10,00,18,10.90
2014,06,10,00,19,10.90
2014,06,10,00,20,10.90
2014,06,10,00,21,10.90
2014,06,10,00,22,10.90
2014,06,10,00,23,10.90
2014,06,10,00,24,10.90
2014,06,10,00,25,10.90
2014,06,10,00,26,10.90
2014,06,10,00,27,10.90
2014,06,10,00,28,10.90
2014,06,10,00,29,10.90
2014,06,10,00,30,10.90
2014,06,10,00,31,10.90
2014,06,10,00,32,11.00
2014,06,10,00,33,11.00
2014,06,10,00,34,11.00
2014,06,10,00,35,11.00
2014,06,10,00,36,11.00
2014,06,10,00,37,11.00
2014,06,10,00,38,11.00
2014,06,10,00,39,11.00
2014,06,10,00,40,10.90
2014,06,10,00,41,10.90
2014,06,10,00,42,10.90
2014,06,10,00,43,10.90
2014,06,10,00,44,10.90
2014,06,10,00,45,10.90
2014,06,10,00,46,10.90
2014,06,10,00,47,10.90
2014,06,10,00,48,10.90
2014,06,10,00,49,10.90
2014,06,10,00,50,10.90
2014,06,10,00,51,10.90
2014,06,10,00,52,10.90
2014,06,10,00,53,10.90
2014,06,10,00,54,10.90
2014,06,10,00,55,10.90
2014,06,10,00,56,10.90
2014,06,10,00,57,10.90
2014,06,10,00,58,10.90
2014,06,10,00,59,10.90
2014,06,10,01,00,10.90
2014,06,10,01,01,10.90
2014,06,10,01,02,10.90
2014,06,10,01,03,10.90
2014,06,10,01,04,10.90
2014,06,10,01,05,10.90
2014,06,10,01,06,10.90
2014,06,10,01,07,10.90
2014,06,10,01,08,10.90
2014,06,10,01,09,10.90
2014,06,10,01,10,10.90
2014,06,10,01,11,10.90
2014,06,10,01,12,10.90
2014,06,10,01,13,10.90
2014,06,10,01,14,10.90
2014,06,10,01,15,10.90
2014,06,10,01,16,10.90
2014,06,10,01,17,10.90
2014,06,10,01,18,10.90
2014,06,10,01,19,10.90
2014,06,10,01,20,10.90
2014,06,10,01,21,10.90
2014,06,10,01,22,10.90
2014,06,10,01,23,10.90
2014,06,10,01,24,10.90
2014,06,10,01,25,10.90
2014,06,10,01,26,10.90
2014,06,10,01,27,10.90
2014,06,10,01,28,10.90
2014,06,10,01,29,10.90
2014,06,10,01,30,10.90
2014,06,10,01,31,10.90
2014,06,10,01,32,10.90
2014,06,10,01,33,10.90
2014,06,10,01,34,10.90
2014,06,10,01,35,10.90
2014,06,10,01,36,10.90
2014,06,10,01,37,10.90
2014,06,10,01,38,10.90
2014,06,10,01,39,10.90
2014,06,10,01,40,10.90
2014,06,10,01,41,10.90
2014,06,10,01,42,10.90
2014,06,10,01,43,10.90
2014,06,10,01,44,10.90
2014,06,10,01,45,10.90
2014,06,10,01,46,10.90
2014,06,10,01,47,10.90
2014,06,10,01,48,10.90
2014,06,10,01,49,10.80
2014,06,10,01,50,10.80
2014,06,10,01,51,10.80
2014,06,10,01,52,10.80
2014,06,10,01,53,10.80
2014,06,10,01,54,10.80
2014,06,10,01,55,10.80
2014,06,10,01,56,10.80
2014,06,10,01,57,10.80
2014,06,10,01,58,10.80
2014,06,10,01,59,10.70
2014,06,10,02,00,10.70
2014,06,10,02,01,10.70
2014,06,10,02,02,10.70
2014,06,10,02,03,10.70
2014,06,10,02,04,10.70
2014,06,10,02,05,10.70
2014,06,10,02,06,10.70
2014,06,10,02,07,10.70
2014,06,10,02,08,10.70
2014,06,10,02,09,10.70
2014,06,10,02,10,10.70
2014,06,10,02,11,10.70
2014,06,10,02,12,10.70
2014,06,10,02,13,10.70
2014,06,10,02,14,10.70
2014,06,10,02,15,10.70
2014,06,10,02,16,10.70
2014,06,10,02,17,10.70
2014,06,10,02,18,10.70
2014,06,10,02,19,10.70
2014,06,10,02,20,10.70
2014,06,10,02,21,10.70
2014,06,10,02,22,10.70
2014,06,10,02,23,10.70
2014,06,10,02,24,10.70
2014,06,10,02,25,10.70
2014,06,10,02,26,10.70
2014,06,10,02,27,10.70
2014,06,10,02,28,10.70
2014,06,10,02,29,10.70
2014,06,10,02,30,10.70
2014,06,10,02,31,10.60
2014,06,10,02,32,10.70
2014,06,10,02,33,10.60
2014,06,10,02,34,10.60
2014,06,10,02,35,10.60
2014,06,10,02,36,10.60
2014,06,10,02,37,10.60
2014,06,10,02,38,10.60
2014,06,10,02,39,10.60
2014,06,10,02,40,10.60
2014,06,10,02,41,10.60
2014,06,10,02,42,10.60
2014,06,10,02,43,10.60
2014,06,10,02,44,10.60
2014,06,10,02,45,10.60
2014,06,10,02,46,10.60
2014,06,10,02,47,10.60
2014,06,10,02,48,10.60
2014,06,10,02,49,10.60
2014,06,10,02,50,10.60
2014,06,10,02,51,10.60
2014,06,10,02,52,10.60
2014,06,10,02,53,10.60
2014,06,10,02,54,10.60
2014,06,10,02,55,10.60
2014,06,10,02,56,10.60
2014,06,10,02,57,10.60
2014,06,10,02,58,10.60
2014,06,10,02,59,10.60
2014,06,10,03,00,10.60
2014,06,10,03,01,10.60
2014,06,10,03,02,10.60
2014,06,10,03,03,10.60
2014,06,10,03,04,10.60
2014,06,10,03,05,10.60
2014,06,10,03,06,10.60
2014,06,10,03,07,10.60
2014,06,10,03,08,10.60
2014,06,10,03,09,10.60
2014,06,10,03,10,10.60
2014,06,10,03,11,10.60
2014,06,10,03,12,10.60
2014,06,10,03,13,10.60
2014,06,10,03,14,10.60
2014,06,10,03,15,10.60
2014,06,10,03,16,10.60
2014,06,10,03,17,10.60
2014,06,10,03,18,10.60
2014,06,10,03,19,10.60
2014,06,10,03,20,10.60
2014,06,10,03,21,10.60
2014,06,10,03,22,10.60
2014,06,10,03,23,10.60
2014,06,10,03,24,10.60
2014,06,10,03,25,10.60
2014,06,10,03,26,10.60
2014,06,10,03,27,10.60
2014,06,10,03,28,10.60
2014,06,10,03,29,10.70
2014,06,10,03,30,10.70
2014,06,10,03,31,10.70
2014,06,10,03,32,10.70
2014,06,10,03,33,10.70
2014,06,10,03,34,10.70
2014,06,10,03,35,10.70
2014,06,10,03,36,10.70
2014,06,10,03,37,10.70
2014,06,10,03,38,10.70
2014,06,10,03,39,10.70
2014,06,10,03,40,10.70
2014,06,10,03,41,10.70
2014,06,10,03,42,10.80
2014,06,10,03,43,10.80
2014,06,10,03,44,10.80
2014,06,10,03,45,10.80
2014,06,10,03,46,10.80
2014,06,10,03,47,10.80
2014,06,10,03,48,10.80
2014,06,10,03,49,10.80
2014,06,10,03,50,10.80
2014,06,10,03,51,10.80
2014,06,10,03,52,10.80
2014,06,10,03,53,10.80
2014,06,10,03,54,10.80
2014,06,10,03,55,10.80
2014,06,10,03,56,10.80
2014,06,10,03,57,10.80
2014,06,10,03,58,10.80
2014,06,10,03,59,10.80
2014,06,10,04,00,10.80
2014,06,10,04,01,10.90
2014,06,10,04,02,10.90
2014,06,10,04,03,10.90
2014,06,10,04,04,10.90
2014,06,10,04,05,10.90
2014,06,10,04,06,10.90
2014,06,10,04,07,10.90
2014,06,10,04,08,10.90
2014,06,10,04,09,11.00
2014,06,10,04,10,11.00
2014,06,10,04,11,11.00
2014,06,10,04,12,11.00
2014,06,10,04,13,11.10
2014,06,10,04,14,11.10
2014,06,10,04,15,11.10
2014,06,10,04,16,11.10
2014,06,10,04,17,11.10
2014,06,10,04,18,11.10
2014,06,10,04,19,11.10
2014,06,10,04,20,11.10
2014,06,10,04,21,11.10
2014,06,10,04,22,11.10
2014,06,10,04,23,11.10
2014,06,10,04,24,11.10
2014,06,10,04,25,11.10
2014,06,10,04,26,11.10
2014,06,10,04,27,11.10
2014,06,10,04,28,11.10
2014,06,10,04,29,11.10
2014,06,10,04,30,11.10
2014,06,10,04,31,11.10
2014,06,10,04,32,11.10
2014,06,10,04,33,11.10
2014,06,10,04,34,11.10
2014,06,10,04,35,11.10
2014,06,10,04,36,11.10
2014,06,10,04,37,11.10
2014,06,10,04,38,11.10
2014,06,10,04,39,11.10
2014,06,10,04,40,11.20
2014,06,10,04,41,11.10
2014,06,10,04,42,11.20
2014,06,10,04,43,11.20
2014,06,10,04,44,11.20
2014,06,10,04,45,11.20
2014,06,10,04,46,11.20
2014,06,10,04,47,11.20
2014,06,10,04,48,11.20
2014,06,10,04,49,11.20
2014,06,10,04,50,11.20
2014,06,10,04,51,11.20
2014,06,10,04,52,11.20
2014,06,10,04,53,11.20
2014,06,10,04,54,11.20
2014,06,10,04,55,11.20
2014,06,10,04,56,11.10
2014,06,10,04,57,11.10
2014,06,10,04,58,11.10
2014,06,10,04,59,11.20
2014,06,10,05,00,11.20
2014,06,10,05,01,11.20
2014,06,10,05,02,11.10
2014,06,10,05,03,11.10
2014,06,10,05,04,11.20
2014,06,10,05,05,11.10
2014,06,10,05,06,11.10
2014,06,10,05,07,11.10
2014,06,10,05,08,11.10
2014,06,10,05,09,11.10
2014,06,10,05,10,11.10
2014,06,10,05,11,11.10
2014,06,10,05,12,11.10
2014,06,10,05,13,11.10
2014,06,10,05,14,11.10
2014,06,10,05,15,11.10
2014,06,10,05,16,11.10
2014,06,10,05,17,11.10
2014,06,10,05,18,11.20
2014,06,10,05,19,11.20
2014,06,10,05,20,11.20
2014,06,10,05,21,11.20
2014,06,10,05,22,11.20
2014,06,10,05,23,11.20
2014,06,10,05,24,11.20
2014,06,10,05,25,11.20
2014,06,10,05,26,11.20
2014,06,10,05,27,11.20
2014,06,10,05,28,11.20
2014,06,10,05,29,11.20
2014,06,10,05,30,11.20
2014,06,10,05,31,11.20
2014,06,10,05,32,11.20
2014,06,10,05,33,11.20
2014,06,10,05,34,11.20
2014,06,10,05,35,11.20
2014,06,10,05,36,11.20
2014,06,10,05,37,11.20
2014,06,10,05,38,11.20
2014,06,10,05,39,11.20
2014,06,10,05,40,11.20
2014,06,10,05,41,11.20
2014,06,10,05,42,11.20
2014,06,10,05,43,11.20
2014,06,10,05,44,11.20
2014,06,10,05,45,11.20
2014,06,10,05,46,11.20
2014,06,10,05,47,11.20
2014,06,10,05,48,11.20
2014,06,10,05,49,11.30
2014,06,10,05,50,11.30
2014,06,10,05,51,11.30
2014,06,10,05,52,11.30
2014,06,10,05,53,11.30
2014,06,10,05,54,11.30
2014,06,10,05,55,11.30
2014,06,10,05,56,11.30
2014,06,10,05,57,11.30
2014,06,10,05,58,11.40
2014,06,10,05,59,11.40
2014,06,10,06,00,11.40
2014,06,10,06,01,11.40
2014,06,10,06,02,11.40
2014,06,10,06,03,11.40
2014,06,10,06,04,11.40
2014,06,10,06,05,11.50
2014,06,10,06,06,11.50
2014,06,10,06,07,11.50
2014,06,10,06,08,11.50
2014,06,10,06,09,11.50
2014,06,10,06,10,11.50
2014,06,10,06,11,11.50
2014,06,10,06,12,11.60
2014,06,10,06,13,11.60
2014,06,10,06,14,11.60
2014,06,10,06,15,11.60
2014,06,10,06,16,11.60
2014,06,10,06,17,11.60
2014,06,10,06,18,11.60
2014,06,10,06,19,11.60
2014,06,10,06,20,11.60
2014,06,10,06,21,11.60
2014,06,10,06,22,11.60
2014,06,10,06,23,11.60
2014,06,10,06,24,11.70
2014,06,10,06,25,11.70
2014,06,10,06,26,11.70
2014,06,10,06,27,11.70
2014,06,10,06,28,11.70
2014,06,10,06,29,11.70
2014,06,10,06,30,11.70
2014,06,10,06,31,11.70
2014,06,10,06,32,11.70
2014,06,10,06,33,11.70
2014,06,10,06,34,11.70
2014,06,10,06,35,11.70
2014,06,10,06,36,11.70
2014,06,10,06,37,11.70
2014,06,10,06,38,11.70
2014,06,10,06,39,11.80
2014,06,10,06,40,11.80
2014,06,10,06,41,11.80
2014,06,10,06,42,11.80
2014,06,10,06,43,11.80
2014,06,10,06,44,11.80
2014,06,10,06,45,11.80
2014,06,10,06,46,11.80
2014,06,10,06,47,11.80
2014,06,10,06,48,11.80
2014,06,10,06,49,11.80
2014,06,10,06,50,11.80
2014,06,10,06,51,11.80
2014,06,10,06,52,11.80
2014,06,10,06,53,11.80
2014,06,10,06,54,11.80
2014,06,10,06,55,11.80
2014,06,10,06,56,11.80
2014,06,10,06,57,11.80
2014,06,10,06,58,11.80
2014,06,10,06,59,11.80
2014,06,10,07,00,11.80
2014,06,10,07,01,11.80
2014,06,10,07,02,11.80
2014,06,10,07,03,11.80
2014,06,10,07,04,11.80
2014,06,10,07,05,11.80
2014,06,10,07,06,11.80
2014,06,10,07,07,11.80
2014,06,10,07,08,11.80
2014,06,10,07,09,11.90
2014,06,10,07,10,11.90
2014,06,10,07,11,11.90
2014,06,10,07,12,11.90
2014,06,10,07,13,11.90
2014,06,10,07,14,11.90
2014,06,10,07,15,11.90
2014,06,10,07,16,11.90
2014,06,10,07,17,11.90
2014,06,10,07,18,11.90
2014,06,10,07,19,11.90
2014,06,10,07,20,11.90
2014,06,10,07,21,11.90
2014,06,10,07,22,11.80
2014,06,10,07,23,11.80
2014,06,10,07,24,11.80
2014,06,10,07,25,11.70
2014,06,10,07,26,11.70
2014,06,10,07,27,11.70
2014,06,10,07,28,11.70
2014,06,10,07,29,11.70
2014,06,10,07,30,11.60
2014,06,10,07,31,11.60
2014,06,10,07,32,11.60
2014,06,10,07,33,11.60
2014,06,10,07,34,11.60
2014,06,10,07,35,11.60
2014,06,10,07,36,11.60
2014,06,10,07,37,11.70
2014,06,10,07,38,11.60
2014,06,10,07,39,11.70
2014,06,10,07,40,11.70
2014,06,10,07,41,11.70
2014,06,10,07,42,11.70
2014,06,10,07,43,11.70
2014,06,10,07,44,11.70
2014,06,10,07,45,11.70
2014,06,10,07,46,11.70
2014,06,10,07,47,11.70
2014,06,10,07,48,11.70
2014,06,10,07,49,11.80
2014,06,10,07,50,11.80
2014,06,10,07,51,11.80
2014,06,10,07,52,11.80
2014,06,10,07,53,11.80
2014,06,10,07,54,11.80
2014,06,10,07,55,11.80
2014,06,10,07,56,11.80
2014,06,10,07,57,11.80
2014,06,10,07,58,11.90
2014,06,10,07,59,11.90
2014,06,10,08,00,11.90
2014,06,10,08,01,11.90
2014,06,10,08,02,11.90
2014,06,10,08,03,11.90
2014,06,10,08,04,12.00
2014,06,10,08,05,12.00
2014,06,10,08,06,12.00
2014,06,10,08,07,12.00
2014,06,10,08,08,12.10
2014,06,10,08,09,12.10
2014,06,10,08,10,12.10
2014,06,10,08,11,12.10
2014,06,10,08,12,12.10
2014,06,10,08,13,12.10
2014,06,10,08,14,12.10
2014,06,10,08,15,12.10
2014,06,10,08,16,12.10
2014,06,10,08,17,12.20
2014,06,10,08,18,12.20
2014,06,10,08,19,12.20
2014,06,10,08,20,12.20
2014,06,10,08,21,12.20
2014,06,10,08,22,12.20
2014,06,10,08,23,12.20
2014,06,10,08,24,12.20
2014,06,10,08,25,12.30
2014,06,10,08,26,12.30
2014,06,10,08,27,12.30
2014,06,10,08,28,12.30
2014,06,10,08,29,12.40
2014,06,10,08,30,12.40
2014,06,10,08,31,12.50
2014,06,10,08,32,12.50
2014,06,10,08,33,12.60
2014,06,10,08,34,12.60
2014,06,10,08,35,12.60
2014,06,10,08,36,12.60
2014,06,10,08,37,12.70
2014,06,10,08,38,12.70
2014,06,10,08,39,12.70
2014,06,10,08,40,12.70
2014,06,10,08,41,12.80
2014,06,10,08,42,12.80
2014,06,10,08,43,12.80
2014,06,10,08,44,12.80
2014,06,10,08,45,12.80
2014,06,10,08,46,12.80
2014,06,10,08,47,12.90
2014,06,10,08,48,12.90
2014,06,10,08,49,13.00
2014,06,10,08,50,13.00
2014,06,10,08,51,13.10
2014,06,10,08,52,13.10
2014,06,10,08,53,13.20
2014,06,10,08,54,13.20
2014,06,10,08,55,13.30
2014,06,10,08,56,13.30
2014,06,10,08,57,13.40
2014,06,10,08,58,13.50
2014,06,10,08,59,13.50
2014,06,10,09,00,13.60
2014,06,10,09,01,13.60
2014,06,10,09,02,13.70
2014,06,10,09,03,13.70
2014,06,10,09,04,13.80
2014,06,10,09,05,13.90
2014,06,10,09,06,14.00
2014,06,10,09,07,14.00
2014,06,10,09,08,14.10
2014,06,10,09,09,14.10
2014,06,10,09,10,14.20
2014,06,10,09,11,14.20
2014,06,10,09,12,14.10
2014,06,10,09,13,14.10
2014,06,10,09,14,14.10
2014,06,10,09,15,14.00
2014,06,10,09,16,14.00
2014,06,10,09,17,14.00
2014,06,10,09,18,13.90
2014,06,10,09,19,13.90
2014,06,10,09,20,13.90
2014,06,10,09,21,13.90
2014,06,10,09,22,13.90
2014,06,10,09,23,13.90
2014,06,10,09,24,13.90
2014,06,10,09,25,13.90
2014,06,10,09,26,13.90
2014,06,10,09,27,13.90
2014,06,10,09,28,13.80
2014,06,10,09,29,13.80
2014,06,10,09,30,13.80
2014,06,10,09,31,13.80
2014,06,10,09,32,13.80
2014,06,10,09,33,13.80
2014,06,10,09,34,13.80
2014,06,10,09,35,13.80
2014,06,10,09,36,13.90
2014,06,10,09,37,13.90
2014,06,10,09,38,14.00
2014,06,10,09,39,14.00
2014,06,10,09,40,14.10
2014,06,10,09,41,14.20
2014,06,10,09,42,14.30
2014,06,10,09,43,14.30
2014,06,10,09,44,14.30
2014,06,10,09,45,14.30
2014,06,10,09,46,14.30
2014,06,10,09,47,14.30
2014,06,10,09,48,14.40
2014,06,10,09,49,14.50
2014,06,10,09,50,14.50
2014,06,10,09,51,14.60
2014,06,10,09,52,14.60
2014,06,10,09,53,14.60
2014,06,10,09,54,14.70
2014,06,10,09,55,14.70
2014,06,10,09,56,14.80
2014,06,10,09,57,14.80
2014,06,10,09,58,14.90
2014,06,10,09,59,15.00
2014,06,10,10,00,15.00
2014,06,10,10,01,15.00
2014,06,10,10,02,15.00
2014,06,10,10,03,15.00
2014,06,10,10,04,15.00
2014,06,10,10,05,15.00
2014,06,10,10,06,15.10
2014,06,10,10,07,15.20
2014,06,10,10,08,15.20
2014,06,10,10,09,15.30
2014,06,10,10,10,15.30
2014,06,10,10,11,15.40
2014,06,10,10,12,15.40
2014,06,10,10,13,15.40
2014,06,10,10,14,15.30
2014,06,10,10,15,15.30
2014,06,10,10,16,15.40
2014,06,10,10,17,15.50
2014,06,10,10,18,15.50
2014,06,10,10,19,15.60
2014,06,10,10,20,15.70
2014,06,10,10,21,15.80
2014,06,10,10,22,15.80
2014,06,10,10,23,15.80
2014,06,10,10,24,15.80
2014,06,10,10,25,15.90
2014,06,10,10,26,15.90
2014,06,10,10,27,15.90
2014,06,10,10,28,15.80
2014,06,10,10,29,15.80
2014,06,10,10,30,15.80
2014,06,10,10,31,15.80
2014,06,10,10,32,15.80
2014,06,10,10,33,15.70
2014,06,10,10,34,15.70
2014,06,10,10,35,15.70
2014,06,10,10,36,15.70
2014,06,10,10,37,15.80
2014,06,10,10,38,15.80
2014,06,10,10,39,15.80
2014,06,10,10,40,15.80
2014,06,10,10,41,15.90
2014,06,10,10,42,15.90
2014,06,10,10,43,15.90
2014,06,10,10,44,15.90
2014,06,10,10,45,15.90
2014,06,10,10,46,15.90
2014,06,10,10,47,15.90
2014,06,10,10,48,15.90
2014,06,10,10,49,16.00
2014,06,10,10,50,16.00
2014,06,10,10,51,16.10
2014,06,10,10,52,16.10
2014,06,10,10,53,16.20
2014,06,10,10,54,16.20
2014,06,10,10,55,16.30
2014,06,10,10,56,16.40
2014,06,10,10,57,16.40
2014,06,10,10,58,16.40
2014,06,10,10,59,16.40
2014,06,10,11,00,16.30
2014,06,10,11,01,16.20
2014,06,10,11,02,16.10
2014,06,10,11,03,16.10
2014,06,10,11,04,16.10
2014,06,10,11,05,16.10
2014,06,10,11,06,16.10
2014,06,10,11,07,16.20
2014,06,10,11,08,16.20
2014,06,10,11,09,16.30
2014,06,10,11,10,16.30
2014,06,10,11,11,16.40
2014,06,10,11,12,16.40
2014,06,10,11,13,16.50
2014,06,10,11,14,16.60
2014,06,10,11,15,16.60
2014,06,10,11,16,16.60
2014,06,10,11,17,16.70
2014,06,10,11,18,16.70
2014,06,10,11,19,16.80
2014,06,10,11,20,16.80
2014,06,10,11,21,16.80
2014,06,10,11,22,16.80
2014,06,10,11,23,16.70
2014,06,10,11,24,16.70
2014,06,10,11,25,16.70
2014,06,10,11,26,16.70
2014,06,10,11,27,16.80
2014,06,10,11,28,16.90
2014,06,10,11,29,17.00
2014,06,10,11,30,17.10
2014,06,10,11,31,17.20
2014,06,10,11,32,17.20
2014,06,10,11,33,17.20
2014,06,10,11,34,17.10
2014,06,10,11,35,17.00
2014,06,10,11,36,16.90
2014,06,10,11,37,16.90
2014,06,10,11,38,16.90
2014,06,10,11,39,16.90
2014,06,10,11,40,17.00
2014,06,10,11,41,17.00
2014,06,10,11,42,17.10
2014,06,10,11,43,17.20
2014,06,10,11,44,17.20
2014,06,10,11,45,17.30
2014,06,10,11,46,17.40
2014,06,10,11,47,17.40
2014,06,10,11,48,17.40
2014,06,10,11,49,17.30
2014,06,10,11,50,17.30
2014,06,10,11,51,17.20
2014,06,10,11,52,17.30
2014,06,10,11,53,17.30
2014,06,10,11,54,17.30
2014,06,10,11,55,17.40
2014,06,10,11,56,17.40
2014,06,10,11,57,17.50
2014,06,10,11,58,17.60
2014,06,10,11,59,17.60
2014,06,10,12,00,17.70
2014,06,10,12,01,17.70
2014,06,10,12,02,17.70
2014,06,10,12,03,17.80
2014,06,10,12,04,17.80
2014,06,10,12,05,17.90
2014,06,10,12,06,18.00
2014,06,10,12,07,18.00
2014,06,10,12,08,18.10
2014,06,10,12,09,18.10
2014,06,10,12,10,18.10
2014,06,10,12,11,18.10
2014,06,10,12,12,18.10
2014,06,10,12,13,18.10
2014,06,10,12,14,18.10
2014,06,10,12,15,18.20
2014,06,10,12,16,18.20
2014,06,10,12,17,18.10
2014,06,10,12,18,18.00
2014,06,10,12,19,17.90
2014,06,10,12,20,17.90
2014,06,10,12,21,17.90
2014,06,10,12,22,17.90
2014,06,10,12,23,17.90
2014,06,10,12,24,17.90
2014,06,10,12,25,17.90
2014,06,10,12,26,17.80
2014,06,10,12,27,17.70
2014,06,10,12,28,17.60
2014,06,10,12,29,17.50
2014,06,10,12,30,17.40
2014,06,10,12,31,17.40
2014,06,10,12,32,17.40
2014,06,10,12,33,17.30
2014,06,10,12,34,17.30
2014,06,10,12,35,17.30
2014,06,10,12,36,17.30
2014,06,10,12,37,17.30
2014,06,10,12,38,17.20
2014,06,10,12,39,17.20
2014,06,10,12,40,17.20
2014,06,10,12,41,17.20
2014,06,10,12,42,17.20
2014,06,10,12,43,17.20
2014,06,10,12,44,17.20
2014,06,10,12,45,17.20
2014,06,10,12,46,17.20
2014,06,10,12,47,17.10
2014,06,10,12,48,17.10
2014,06,10,12,49,17.10
2014,06,10,12,50,17.10
2014,06,10,12,51,17.10
2014,06,10,12,52,17.10
2014,06,10,12,53,17.20
2014,06,10,12,54,17.20
2014,06,10,12,55,17.30
2014,06,10,12,56,17.30
2014,06,10,12,57,17.30
2014,06,10,12,58,17.40
2014,06,10,12,59,17.50
2014,06,10,13,00,17.60
2014,06,10,13,01,17.60
2014,06,10,13,02,17.60
2014,06,10,13,03,17.70
2014,06,10,13,04,17.70
2014,06,10,13,05,17.70
2014,06,10,13,06,17.70
2014,06,10,13,07,17.70
2014,06,10,13,08,17.70
2014,06,10,13,09,17.70
2014,06,10,13,10,17.70
2014,06,10,13,11,17.70
2014,06,10,13,12,17.60
2014,06,10,13,13,17.50
2014,06,10,13,14,17.50
2014,06,10,13,15,17.40
2014,06,10,13,16,17.30
2014,06,10,13,17,17.30
2014,06,10,13,18,17.30
2014,06,10,13,19,17.30
2014,06,10,13,20,17.30
2014,06,10,13,21,17.30
2014,06,10,13,22,17.30
2014,06,10,13,23,17.40
2014,06,10,13,24,17.50
2014,06,10,13,25,17.50
2014,06,10,13,26,17.70
2014,06,10,13,27,17.80
2014,06,10,13,28,17.90
2014,06,10,13,29,18.10
2014,06,10,13,30,18.20
2014,06,10,13,31,18.30
2014,06,10,13,32,18.40
2014,06,10,13,33,18.40
2014,06,10,13,34,18.50
2014,06,10,13,35,18.50
2014,06,10,13,36,18.60
2014,06,10,13,37,18.60
2014,06,10,13,38,18.60
2014,06,10,13,39,18.60
2014,06,10,13,40,18.70
2014,06,10,13,41,18.80
2014,06,10,13,42,18.90
2014,06,10,13,43,18.90
2014,06,10,13,44,18.90
2014,06,10,13,45,18.90
2014,06,10,13,46,18.90
2014,06,10,13,47,18.90
2014,06,10,13,48,18.80
2014,06,10,13,49,18.70
2014,06,10,13,50,18.70
2014,06,10,13,51,18.70
2014,06,10,13,52,18.70
2014,06,10,13,53,18.70
2014,06,10,13,54,18.80
2014,06,10,13,55,18.80
2014,06,10,13,56,18.90
2014,06,10,13,57,18.80
2014,06,10,13,58,18.80
2014,06,10,13,59,18.80
2014,06,10,14,00,18.80
2014,06,10,14,01,18.80
2014,06,10,14,02,18.80
2014,06,10,14,03,18.80
2014,06,10,14,04,18.90
2014,06,10,14,05,18.90
2014,06,10,14,06,18.80
2014,06,10,14,07,18.80
2014,06,10,14,08,18.90
2014,06,10,14,09,18.90
2014,06,10,14,10,18.90
2014,06,10,14,11,18.90
2014,06,10,14,12,18.90
2014,06,10,14,13,18.80
2014,06,10,14,14,18.70
2014,06,10,14,15,18.70
2014,06,10,14,16,18.80
2014,06,10,14,17,18.80
2014,06,10,14,18,18.80
2014,06,10,14,19,18.80
2014,06,10,14,20,18.80
2014,06,10,14,21,18.80
2014,06,10,14,22,18.80
2014,06,10,14,23,18.80
2014,06,10,14,24,18.70
2014,06,10,14,25,18.70
2014,06,10,14,26,18.60
2014,06,10,14,27,18.60
2014,06,10,14,28,18.50
2014,06,10,14,29,18.50
2014,06,10,14,30,18.40
2014,06,10,14,31,18.50
2014,06,10,14,32,18.50
2014,06,10,14,33,18.50
2014,06,10,14,34,18.60
2014,06,10,14,35,18.60
2014,06,10,14,36,18.70
2014,06,10,14,37,18.80
2014,06,10,14,38,18.80
2014,06,10,14,39,18.80
2014,06,10,14,40,18.70
2014,06,10,14,41,18.70
2014,06,10,14,42,18.60
2014,06,10,14,43,18.60
2014,06,10,14,44,18.50
2014,06,10,14,45,18.50
2014,06,10,14,46,18.60
2014,06,10,14,47,18.60
2014,06,10,14,48,18.60
2014,06,10,14,49,18.60
2014,06,10,14,50,18.70
2014,06,10,14,51,18.70
2014,06,10,14,52,18.60
2014,06,10,14,53,18.50
2014,06,10,14,54,18.50
2014,06,10,14,55,18.50
2014,06,10,14,56,18.50
2014,06,10,14,57,18.50
2014,06,10,14,58,18.50
2014,06,10,14,59,18.60
2014,06,10,15,00,18.60
2014,06,10,15,01,18.70
2014,06,10,15,02,18.70
2014,06,10,15,03,18.70
2014,06,10,15,04,18.70
2014,06,10,15,05,18.70
2014,06,10,15,06,18.60
2014,06,10,15,07,18.60
2014,06,10,15,08,18.60
2014,06,10,15,09,18.60
2014,06,10,15,10,18.60
2014,06,10,15,11,18.60
2014,06,10,15,12,18.70
2014,06,10,15,13,18.70
2014,06,10,15,14,18.80
2014,06,10,15,15,18.70
2014,06,10,15,16,18.70
2014,06,10,15,17,18.60
2014,06,10,15,18,18.60
2014,06,10,15,19,18.60
2014,06,10,15,20,18.70
2014,06,10,15,21,18.80
2014,06,10,15,22,18.80
2014,06,10,15,23,18.90
2014,06,10,15,24,18.90
2014,06,10,15,25,18.90
2014,06,10,15,26,18.90
2014,06,10,15,27,18.80
2014,06,10,15,28,18.80
2014,06,10,15,29,18.80
2014,06,10,15,30,18.80
2014,06,10,15,31,18.70
2014,06,10,15,32,18.70
2014,06,10,15,33,18.70
2014,06,10,15,34,18.70
2014,06,10,15,35,18.60
2014,06,10,15,36,18.60
2014,06,10,15,37,18.60
2014,06,10,15,38,18.50
2014,06,10,15,39,18.40
2014,06,10,15,40,18.40
2014,06,10,15,41,18.30
2014,06,10,15,42,18.30
2014,06,10,15,43,18.30
2014,06,10,15,44,18.30
2014,06,10,15,45,18.30
2014,06,10,15,46,18.20
2014,06,10,15,47,18.30
2014,06,10,15,48,18.30
2014,06,10,15,49,18.40
2014,06,10,15,50,18.50
2014,06,10,15,51,18.60
2014,06,10,15,52,18.70
2014,06,10,15,53,18.90
2014,06,10,15,54,18.90
2014,06,10,15,55,19.00
2014,06,10,15,56,19.00
2014,06,10,15,57,19.00
2014,06,10,15,58,19.00
2014,06,10,15,59,18.90
2014,06,10,16,00,18.80
2014,06,10,16,01,18.70
2014,06,10,16,02,18.70
2014,06,10,16,03,18.70
2014,06,10,16,04,18.80
2014,06,10,16,05,18.80
2014,06,10,16,06,19.00
2014,06,10,16,07,19.10
2014,06,10,16,08,19.20
2014,06,10,16,09,19.10
2014,06,10,16,10,19.10
2014,06,10,16,11,19.00
2014,06,10,16,12,18.80
2014,06,10,16,13,18.70
2014,06,10,16,14,18.60
2014,06,10,16,15,18.50
2014,06,10,16,16,18.40
2014,06,10,16,17,18.30
2014,06,10,16,18,18.20
2014,06,10,16,19,18.20
2014,06,10,16,20,18.10
2014,06,10,16,21,18.00
2014,06,10,16,22,18.00
2014,06,10,16,23,17.90
2014,06,10,16,24,17.90
2014,06,10,16,25,17.90
2014,06,10,16,26,17.90
2014,06,10,16,27,17.90
2014,06,10,16,28,17.90
2014,06,10,16,29,17.90
2014,06,10,16,30,17.90
2014,06,10,16,31,17.90
2014,06,10,16,32,17.90
2014,06,10,16,33,17.90
2014,06,10,16,34,17.90
2014,06,10,16,35,17.90
2014,06,10,16,36,17.90
2014,06,10,16,37,17.90
2014,06,10,16,38,17.80
2014,06,10,16,39,17.80
2014,06,10,16,40,17.80
2014,06,10,16,41,17.80
2014,06,10,16,42,17.80
2014,06,10,16,43,17.80
2014,06,10,16,44,17.80
2014,06,10,16,45,17.80
2014,06,10,16,46,17.90
2014,06,10,16,47,18.00
2014,06,10,16,48,18.10
2014,06,10,16,49,18.10
2014,06,10,16,50,18.10
2014,06,10,16,51,18.10
2014,06,10,16,52,18.20
2014,06,10,16,53,18.20
2014,06,10,16,54,18.30
2014,06,10,16,55,18.30
2014,06,10,16,56,18.40
2014,06,10,16,57,18.40
2014,06,10,16,58,18.40
2014,06,10,16,59,18.40
2014,06,10,17,00,18.40
2014,06,10,17,01,18.30
2014,06,10,17,02,18.30
2014,06,10,17,03,18.30
2014,06,10,17,04,18.20
2014,06,10,17,05,18.10
2014,06,10,17,06,18.00
2014,06,10,17,07,17.90
2014,06,10,17,08,17.90
2014,06,10,17,09,17.90
2014,06,10,17,10,17.80
2014,06,10,17,11,17.80
2014,06,10,17,12,17.80
2014,06,10,17,13,17.80
2014,06,10,17,14,17.80
2014,06,10,17,15,17.80
2014,06,10,17,16,17.80
2014,06,10,17,17,17.80
2014,06,10,17,18,17.80
2014,06,10,17,19,17.80